GW5785 Weather Reports


time (UTC)temp
F
wind
direction
speed
knots
gust
knots
rain 1hr
in
rain 24hr
in
rain mn
in
humidity
%
barometer
mb
20260506062508 39 282 0.0 0.0 0.00 0.03 0.03 81 1004.9
20260506062005 39 252 0.0 0.0 0.00 0.03 0.03 81 1005.1
20260506061500 39 199 0.0 0.0 0.00 0.03 0.03 81 1005.1
20260506060958 38 199 0.0 0.0 0.00 0.03 0.03 83 1005.1
20260506060457 38 211 0.0 0.0 0.00 0.03 0.03 84 1004.8
20260506050925 40 122 0.0 0.0 0.00 0.03 0.03 80 1004.6
20260506050423 39 82 0.0 0.0 0.00 0.03 0.03 80 1004.4
20260506044913 37 52 0.0 0.0 0.00 0.03 0.03 92 1004.6
20260506044412 36 52 0.0 0.0 0.00 0.03 0.03 93 1004.6
20260506043908 35 52 0.0 0.0 0.00 0.03 0.03 94 1004.5
20260506043406 35 52 0.0 0.0 0.00 0.03 0.03 94 1004.4
20260506042904 35 52 0.0 0.0 0.00 0.03 0.03 94 1004.5
20260506042403 35 52 0.0 0.0 0.00 0.03 0.03 94 1004.4
20260506041900 36 52 0.0 0.0 0.00 0.03 0.03 95 1004.4
20260506041357 35 52 0.0 0.0 0.00 0.03 0.03 95 1004.3
20260506040855 35 52 0.0 0.9 0.00 0.03 0.03 95 1004.2
20260506040352 34 345 0.0 0.0 0.00 0.03 0.03 95 1004.0
20260506035848 34 0 0.0 0.9 0.00 0.03 0.03 95 1004.1
20260506035345 33 53 1.7 1.7 0.00 0.03 0.03 95 1004.1
20260506034843 33 24 1.7 1.7 0.00 0.03 0.03 95 1004.3
20260506034340 34 32 0.0 0.0 0.00 0.03 0.03 95 1004.0
20260506033836 34 311 0.0 0.0 0.00 0.03 0.03 95 1004.0
20260506033334 33 327 0.0 0.0 0.00 0.03 0.03 95 1003.9
20260506032830 34 345 0.0 0.0 0.00 0.03 0.03 95 1003.9
20260506032327 34 30 0.0 0.0 0.00 0.03 0.03 95 1003.9
20260506031824 34 11 0.0 0.0 0.00 0.03 0.03 95 1003.8
20260506031322 34 321 0.0 0.0 0.00 0.03 0.03 95 1003.9
20260506030819 34 305 0.0 0.0 0.00 0.03 0.03 95 1003.8
20260506030317 34 305 0.0 0.0 0.00 0.03 0.03 95 1003.7
20260506025814 34 299 0.0 0.0 0.00 0.03 0.03 95 1003.7
20260506025310 34 290 0.0 0.0 0.00 0.03 0.03 95 1003.6
20260506024807 34 19 0.0 0.0 0.00 0.03 0.03 95 1003.6
20260506024304 35 71 1.7 2.6 0.00 0.03 0.03 95 1003.4
20260506023800 34 64 1.7 1.7 0.00 0.03 0.03 95 1003.6
20260506023257 34 65 1.7 1.7 0.00 0.03 0.03 95 1003.6
20260506022753 34 54 0.0 0.0 0.00 0.03 0.03 95 1003.5
20260506022252 34 61 0.0 0.0 0.00 0.03 0.03 95 1003.5
20260506021749 35 48 0.9 1.7 0.00 0.03 0.03 95 1003.3
20260506021246 35 45 0.9 0.9 0.00 0.03 0.03 95 1003.4
20260506020743 34 28 0.0 0.0 0.00 0.03 0.03 95 1003.4
20260506020241 34 341 0.0 0.9 0.00 0.03 0.03 95 1003.3
20260506015738 34 354 0.9 1.7 0.00 0.03 0.03 95 1003.3
20260506015235 35 22 0.9 1.7 0.00 0.03 0.03 95 1003.2
20260506014732 35 71 1.7 1.7 0.00 0.03 0.03 94 1003.2
20260506014228 35 55 0.0 0.0 0.00 0.03 0.03 94 1003.4
20260506013726 35 25 0.0 0.0 0.00 0.03 0.03 94 1003.4
20260506013223 35 24 0.0 0.0 0.00 0.03 0.03 94 1003.1
20260506012719 35 61 0.0 0.0 0.00 0.03 0.03 94 1003.2
20260506012216 35 39 0.0 0.0 0.00 0.03 0.03 94 1003.1
20260506011713 35 39 0.0 0.0 0.00 0.03 0.03 94 1003.1
20260506011209 35 39 0.0 0.9 0.00 0.03 0.03 94 1003.2
20260506010708 35 15 0.9 0.9 0.00 0.03 0.03 94 1003.0
20260506010205 35 19 0.9 1.7 0.00 0.03 0.03 94 1003.0
20260506005702 35 2 0.9 1.7 0.00 0.03 0.03 94 1003.1
20260506005159 35 315 0.0 0.0 0.00 0.03 0.03 93 1003.0
20260506004655 35 341 1.7 1.7 0.00 0.03 0.03 93 1002.8
20260506004152 35 355 0.0 0.0 0.00 0.03 0.03 93 1002.9
20260506003648 35 13 0.0 0.0 0.00 0.03 0.03 93 1002.9
20260506003145 35 340 0.0 0.0 0.00 0.03 0.03 93 1002.8
20260506002641 35 35 0.0 0.0 0.00 0.03 0.03 93 1003.1
20260506002137 35 26 0.0 0.0 0.00 0.03 0.03 93 1002.8
20260506001633 35 355 0.0 0.0 0.05 0.03 0.03 93 1002.9
20260506001131 35 44 0.9 1.7 0.00 0.02 0.02 93 1002.7
20260506000628 35 72 0.9 2.6 0.07 0.02 0.02 93 1002.8
20260506000125 35 43 0.9 1.7 0.07 0.02 0.02 93 1002.9
20260505235623 35 302 0.9 2.6 0.00 0.01 0.01 93 1002.8
20260505235120 35 343 0.9 1.7 0.00 0.01 0.01 93 1002.8
20260505234617 35 8 0.9 1.7 0.00 0.01 0.01 93 1002.6
20260505234113 35 340 0.9 1.7 0.00 0.01 0.01 93 1002.7
20260505233611 35 339 0.9 1.7 0.00 0.01 0.01 93 1002.7
20260505233108 36 335 1.7 1.7 0.05 0.01 0.01 93 1002.5
20260505232606 36 341 0.9 0.9 0.00 0.00 0.00 93 1002.7
20260505232103 35 16 0.0 1.7 0.00 0.00 0.00 93 1002.6
20260505231600 36 76 1.7 2.6 0.00 0.00 0.00 93 1002.5
20260505231059 36 79 0.0 0.0 0.00 0.00 0.00 92 1002.5
20260505230556 36 66 0.9 0.9 0.00 0.00 0.00 92 1002.5
20260505230052 36 87 0.9 1.7 0.00 0.00 0.00 92 1002.5
20260505225549 36 45 0.9 1.7 0.00 0.00 0.00 91 1002.5
20260505225045 36 27 0.0 0.0 0.00 0.00 0.00 91 1002.5
20260505224542 36 9 0.0 0.0 0.00 0.00 0.00 91 1002.4
20260505224039 36 35 0.0 0.0 0.00 0.00 0.00 90 1002.5
20260505223536 36 340 0.9 1.7 0.00 0.00 0.00 90 1002.3
20260505223032 36 309 1.7 1.7 0.00 0.00 0.00 90 1002.4
20260505222529 36 39 1.7 2.6 0.00 0.00 0.00 89 1002.4
20260505222025 37 25 1.7 1.7 0.00 0.00 0.00 89 1002.3
20260505221523 37 14 1.7 1.7 0.00 0.00 0.00 88 1002.1
20260505221019 37 354 1.7 1.7 0.00 0.00 0.00 88 1002.2
20260505220516 37 285 1.7 1.7 0.00 0.00 0.00 87 1002.3
20260505220014 38 316 0.0 0.0 0.00 0.00 0.00 87 1002.1
20260505215512 38 227 0.0 0.0 0.00 0.15 0.15 86 1002.1
20260505215009 38 260 0.9 2.6 0.00 0.15 0.15 86 1002.1
20260505214508 38 266 2.6 3.5 0.00 0.15 0.15 85 1002.1
20260505214004 38 230 1.7 1.7 0.00 0.15 0.15 85 1002.0
20260505213502 38 290 1.7 2.6 0.00 0.15 0.15 84 1002.0
20260505212958 38 251 1.7 1.7 0.00 0.15 0.15 84 1002.0
20260505212454 38 236 0.9 1.7 0.00 0.15 0.15 83 1002.0
20260505211951 38 326 0.0 2.6 0.00 0.15 0.15 81 1001.9
20260505211449 38 239 0.9 3.5 0.00 0.15 0.15 82 1002.0
20260505210945 38 338 0.9 3.5 0.00 0.15 0.15 80 1002.1
20260505210442 38 240 1.7 3.5 0.00 0.15 0.15 79 1001.9
20260505205939 38 131 3.5 5.2 0.00 0.15 0.15 78 1001.9
20260505205437 38 127 2.6 3.5 0.00 0.15 0.15 78 1001.9
20260505204933 38 142 0.9 2.6 0.00 0.15 0.15 78 1001.8
20260505204432 38 148 1.7 2.6 0.00 0.15 0.15 78 1001.5
20260505203929 38 134 2.6 5.2 0.00 0.15 0.15 79 1001.6
20260505203425 38 123 1.7 5.2 0.00 0.15 0.15 78 1001.6
20260505202921 38 80 2.6 3.5 0.00 0.15 0.15 79 1001.6
20260505202418 38 114 3.5 6.1 0.00 0.15 0.15 79 1001.5
20260505201914 39 94 1.7 5.2 0.00 0.15 0.15 79 1001.4
20260505201411 39 93 3.5 3.5 0.00 0.15 0.15 79 1001.5
20260505200910 39 120 3.5 6.1 0.00 0.15 0.15 78 1001.5
20260505200406 39 108 3.5 5.2 0.00 0.15 0.15 77 1001.4
20260505195902 39 124 3.5 5.2 0.00 0.15 0.15 76 1001.4
20260505195359 39 107 3.5 5.2 0.00 0.15 0.15 76 1001.4
20260505194856 39 94 2.6 6.1 0.00 0.15 0.15 75 1001.3
20260505194354 39 136 1.7 2.6 0.00 0.15 0.15 74 1001.3
20260505193854 39 99 1.7 2.6 0.00 0.15 0.15 75 1001.3
20260505193352 40 123 1.7 5.2 0.00 0.15 0.15 74 1001.3
20260505192849 40 109 1.7 2.6 0.00 0.15 0.15 73 1001.3
20260505192348 40 124 1.7 2.6 0.00 0.15 0.15 72 1001.3
20260505191845 40 113 0.0 2.6 0.00 0.15 0.15 73 1001.3
20260505191344 40 118 2.6 5.2 0.00 0.15 0.15 73 1001.2
20260505190840 40 97 0.0 0.9 0.00 0.15 0.15 72 1001.2
20260505190335 40 128 2.6 2.6 0.00 0.15 0.15 72 1001.1
20260505185831 40 122 0.9 1.7 0.00 0.15 0.15 72 1001.1
20260505185328 40 102 1.7 2.6 0.00 0.15 0.15 72 1001.2
20260505184824 40 119 0.0 0.9 0.00 0.15 0.15 72 1001.3
20260505184321 40 110 0.9 2.6 0.00 0.15 0.15 72 1001.0
20260505183818 41 125 3.5 5.2 0.00 0.15 0.15 70 1001.1
20260505183315 41 125 1.7 5.2 0.00 0.15 0.15 68 1001.0
20260505182812 41 147 1.7 2.6 0.00 0.15 0.15 68 1000.9
20260505182308 41 227 0.0 0.9 0.00 0.15 0.15 69 1001.0
20260505181805 41 103 1.7 1.7 0.00 0.15 0.15 68 1000.9
20260505181303 41 122 0.9 3.5 0.00 0.15 0.15 69 1000.9
20260505180759 41 105 2.6 2.6 0.00 0.15 0.15 72 1000.9
20260505180255 41 126 1.7 3.5 0.00 0.15 0.15 67 1000.9
20260505175752 41 238 0.0 5.2 0.00 0.15 0.15 68 1000.8
20260505175248 42 246 0.0 0.0 0.00 0.15 0.15 63 1000.6
20260505174745 42 238 0.9 1.7 0.00 0.15 0.15 63 1000.7
20260505174242 42 208 1.7 3.5 0.00 0.15 0.15 63 1000.9
20260505173738 42 249 0.9 1.7 0.00 0.15 0.15 64 1000.7
20260505173235 42 280 1.7 2.6 0.00 0.15 0.15 65 1000.5
20260505172732 42 277 0.9 2.6 0.00 0.15 0.15 64 1000.6
20260505172229 42 264 1.7 2.6 0.00 0.15 0.15 62 1000.7
20260505171729 42 305 1.7 2.6 0.00 0.15 0.15 63 1000.4
20260505171226 42 236 1.7 3.5 0.00 0.15 0.15 65 1000.5
20260505170723 43 244 0.9 1.7 0.00 0.15 0.15 64 1000.6
20260505170220 43 185 1.7 2.6 0.00 0.15 0.15 65 1000.5
20260505165715 43 292 1.7 3.5 0.00 0.15 0.15 63 1000.5
20260505165211 43 207 1.7 2.6 0.00 0.15 0.15 61 1000.3
20260505164707 43 258 2.6 3.5 0.00 0.15 0.15 62 1000.4
20260505164204 44 275 2.6 3.5 0.00 0.15 0.15 62 1000.4
20260505163702 44 246 1.7 2.6 0.00 0.15 0.15 60 1000.4
20260505163201 44 266 2.6 3.5 0.00 0.15 0.15 61 1000.4
20260505162658 44 285 1.7 3.5 0.00 0.15 0.15 61 1000.4
20260505162155 44 302 3.5 3.5 0.00 0.15 0.15 62 1000.3
20260505161651 44 286 1.7 3.5 0.00 0.15 0.15 62 1000.1
20260505161149 44 214 1.7 3.5 0.00 0.15 0.15 62 1000.2
20260505160647 44 248 2.6 3.5 0.00 0.15 0.15 62 1000.2
20260505160144 44 266 1.7 2.6 0.00 0.15 0.15 62 1000.0
20260505153123 44 224 2.6 3.5 0.00 0.15 0.15 63 999.8
20260505152620 44 259 1.7 2.6 0.00 0.15 0.15 65 1000.0
20260505152115 44 270 1.7 2.6 0.00 0.15 0.15 64 1000.0
20260505151611 44 288 1.7 2.6 0.00 0.15 0.15 62 1000.1
20260505151109 44 282 1.7 3.5 0.00 0.15 0.15 63 1000.0
20260505150605 45 269 2.6 2.6 0.00 0.15 0.15 61 999.9
20260505140530 45 276 1.7 3.5 0.00 0.15 0.15 63 999.5
20260505124943 45 234 2.6 7.0 0.00 0.15 0.15 66 999.1
20260505124440 45 268 3.5 6.1 0.00 0.15 0.15 67 999.1
20260505123936 45 269 3.5 7.0 0.00 0.15 0.15 67 998.9
20260505123433 45 295 3.5 6.1 0.00 0.15 0.15 65 999.0
20260505122929 46 257 3.5 5.2 0.00 0.15 0.15 64 998.9
20260505122427 44 256 3.5 5.2 0.00 0.15 0.15 65 998.9
20260505121923 45 264 2.6 3.5 0.00 0.15 0.15 68 998.9
20260505121420 45 239 1.7 3.5 0.00 0.15 0.15 68 998.9
20260505120916 43 247 1.7 2.6 0.00 0.15 0.15 70 998.7
20260505120413 43 267 2.6 3.5 0.00 0.15 0.15 71 998.9
20260505115912 43 195 2.6 3.5 0.00 0.15 0.15 72 998.8
20260505115408 42 253 1.7 6.1 0.00 0.15 0.15 74 998.8
20260505114907 43 284 1.7 2.6 0.00 0.15 0.15 73 998.8
20260505114402 42 304 1.7 3.5 0.00 0.15 0.15 73 998.8
20260505113859 42 312 1.7 5.2 0.00 0.15 0.15 73 998.6
20260505113356 42 267 3.5 3.5 0.00 0.15 0.15 73 998.6
20260505112851 42 320 0.9 5.2 0.00 0.15 0.15 76 998.6
20260505112349 42 305 2.6 3.5 0.00 0.15 0.15 76 998.6
20260505111845 43 272 2.6 3.5 0.00 0.15 0.15 74 998.4
20260505111340 44 245 2.6 2.6 0.00 0.15 0.15 74 998.6
20260505110836 43 276 1.7 3.5 0.00 0.15 0.15 73 998.5
20260505110334 42 238 1.7 2.6 0.00 0.15 0.15 78 998.4
20260505101809 42 213 0.9 5.2 0.00 0.15 0.15 73 998.0
20260505101304 43 258 0.9 1.7 0.00 0.15 0.15 76 998.0
20260505100800 42 253 1.7 2.6 0.00 0.15 0.15 73 997.9
20260505100257 43 211 2.6 3.5 0.00 0.15 0.15 75 997.9
20260505095753 43 214 3.5 3.5 0.00 0.15 0.15 71 997.8
20260505095251 44 187 1.7 2.6 0.00 0.15 0.15 71 997.9
20260505094746 43 211 0.9 3.5 0.00 0.15 0.15 77 997.9
20260505094243 42 130 0.9 2.6 0.00 0.15 0.15 77 997.9
20260505093739 42 202 0.9 2.6 0.00 0.15 0.15 75 997.9
20260505093237 43 219 0.0 1.7 0.00 0.15 0.15 78 997.8
20260505092733 41 169 0.9 2.6 0.00 0.15 0.15 79 997.8
20260505092232 41 222 0.0 1.7 0.00 0.15 0.15 77 997.9
20260505091729 42 129 1.7 1.7 0.00 0.15 0.15 75 997.8
20260505091227 41 113 0.0 2.6 0.00 0.15 0.15 81 997.9
20260505090724 41 221 0.9 0.9 0.00 0.15 0.15 80 997.7
20260505090223 42 165 0.0 1.7 0.00 0.15 0.15 80 997.8
20260505085719 41 230 0.0 1.7 0.00 0.15 0.15 80 997.9
20260505085218 41 102 0.0 0.9 0.00 0.15 0.15 82 997.5
20260505084714 40 102 0.0 0.9 0.00 0.15 0.15 82 997.7
20260505084214 39 255 0.0 0.0 0.00 0.15 0.15 87 997.7
20260505083710 39 227 0.0 0.0 0.00 0.15 0.15 88 998.0
20260505083207 38 285 0.0 0.9 0.00 0.15 0.15 90 997.6
20260505082703 38 257 0.9 1.7 0.00 0.15 0.15 91 997.6
20260505082200 39 256 0.0 1.7 0.00 0.15 0.15 92 997.7
20260505081655 37 271 0.9 0.9 0.00 0.15 0.15 93 997.8
20260505081153 37 239 0.9 2.6 0.00 0.15 0.15 93 997.6
20260505080650 38 203 1.7 2.6 0.00 0.15 0.15 93 997.6
20260505080146 37 207 1.7 1.7 0.00 0.15 0.15 94 997.6
20260505075642 37 248 0.9 1.7 0.07 0.15 0.15 95 997.4
20260505075139 37 269 0.9 1.7 0.00 0.14 0.14 95 997.5
20260505074636 37 258 0.0 1.7 0.00 0.14 0.14 95 997.4
20260505074133 37 238 1.7 1.7 0.00 0.14 0.14 95 997.4
20260505073631 36 259 0.9 0.9 0.00 0.14 0.14 95 997.3
20260505073129 36 159 0.0 1.7 0.00 0.14 0.14 95 997.3
20260505072624 37 284 0.0 0.0 0.00 0.14 0.14 95 997.4
20260505072121 36 109 0.0 0.0 0.00 0.14 0.14 96 997.2
20260505071617 35 132 0.0 0.0 0.07 0.14 0.14 95 997.4
20260505071115 35 75 0.0 0.0 0.07 0.14 0.14 95 997.2
20260505070612 35 168 0.0 0.0 0.00 0.13 0.13 95 997.3